When you browse on this site, cookies collect data to enhance your experience and personalize the content and advertising you see.
Visit our Privacy Policy to learn more. By continuing to use the site, you agree to this use of cookies and data.
  • En España
  • Lista de países
  • Para 7 días
  • Temperatura del agua
  • El tiempo en el mapa
  • Informadores
  • user-avatar
    Iniciar sesión

    Tiempo cada hora Vladimirec

    Hoy, 8 Abril, Miércoles

    Tiempo Temperatura Precipitaciones Viento Presión Humedad
    00:00 +9°C° 0 mm 3 mps 755 mmHg 60%
    01:00 +8°C° 0 mm 3 mps 755 mmHg 62%
    02:00 +8°C° 0 mm 3 mps 755 mmHg 63%
    03:00 +7°C° 0 mm 3 mps 755 mmHg 67%
    04:00 +7°C° 0 mm 3 mps 755 mmHg 70%
    05:00 +6°C° 0 mm 2 mps 755 mmHg 74%
    06:00 +7°C° 0 mm 2 mps 755 mmHg 72%
    07:00 +8°C° 0 mm 2 mps 755 mmHg 69%
    08:00 +9°C° 0 mm 2 mps 756 mmHg 67%
    09:00 +11°C° 0 mm 3 mps 755 mmHg 59%
    10:00 +12°C° 0 mm 3 mps 755 mmHg 50%
    11:00 +14°C° 0 mm 3 mps 755 mmHg 42%
    12:00 +16°C° 0 mm 3 mps 755 mmHg 40%
    13:00 +16°C° 0 mm 3 mps 755 mmHg 38%
    14:00 +17°C° 0 mm 3 mps 754 mmHg 36%
    15:00 +17°C° 0 mm 3 mps 754 mmHg 38%
    16:00 +17°C° 0 mm 3 mps 754 mmHg 39%
    17:00 +17°C° 0 mm 3 mps 754 mmHg 41%
    18:00 +15°C° 0 mm 2 mps 753 mmHg 46%
    19:00 +13°C° 0 mm 2 mps 753 mmHg 52%
    20:00 +11°C° 0 mm 1 mps 753 mmHg 57%
    21:00 +10°C° 0 mm 1 mps 753 mmHg 59%
    22:00 +9°C° 0 mm 1 mps 753 mmHg 61%
    23:00 +9°C° 0 mm 1 mps 753 mmHg 63%

    Mañana, 9 Abril, Jueves

    Tiempo Temperatura Precipitaciones Viento Presión Humedad
    00:00 +8°C° 0 mm 1 mps 752 mmHg 65%
    01:00 +8°C° 0 mm 1 mps 752 mmHg 66%
    02:00 +8°C° 0 mm 1 mps 752 mmHg 67%
    03:00 +7°C° 0 mm 1 mps 751 mmHg 69%
    04:00 +6°C° 0 mm 2 mps 751 mmHg 71%
    05:00 +6°C° 0 mm 2 mps 751 mmHg 73%
    06:00 +7°C° 0 mm 2 mps 750 mmHg 69%
    07:00 +8°C° 0 mm 2 mps 750 mmHg 65%
    08:00 +10°C° 0 mm 2 mps 750 mmHg 61%
    09:00 +12°C° 0 mm 3 mps 749 mmHg 56%
    10:00 +14°C° 0 mm 3 mps 749 mmHg 51%
    11:00 +17°C° 0 mm 4 mps 748 mmHg 46%
    12:00 +18°C° 0 mm 4 mps 748 mmHg 44%
    13:00 +19°C° 0 mm 5 mps 747 mmHg 42%
    14:00 +20°C° 0 mm 5 mps 747 mmHg 40%
    15:00 +20°C° 0 mm 5 mps 746 mmHg 39%
    16:00 +20°C° 0 mm 5 mps 746 mmHg 37%
    17:00 +19°C° 0 mm 5 mps 745 mmHg 36%
    18:00 +17°C° 0 mm 4 mps 745 mmHg 42%
    19:00 +14°C° 0 mm 3 mps 745 mmHg 48%
    20:00 +12°C° 0 mm 3 mps 745 mmHg 53%
    21:00 +11°C° 0 mm 3 mps 745 mmHg 63%
    22:00 +11°C° 0 mm 3 mps 745 mmHg 74%
    23:00 +10°C° 0 mm 4 mps 745 mmHg 84%

    Pasado mañana, 10 Abril, Viernes

    Tiempo Temperatura Precipitaciones Viento Presión Humedad
    00:00 +8°C° 0.2 mm 4 mps 745 mmHg 83%
    01:00 +8°C° 0.2 mm 4 mps 745 mmHg 83%
    02:00 +8°C° 0.2 mm 4 mps 745 mmHg 82%
    03:00 +6°C° 0 mm 4 mps 746 mmHg 83%
    04:00 +5°C° 0 mm 5 mps 746 mmHg 84%
    05:00 +3°C° 0 mm 5 mps 747 mmHg 85%
    06:00 +3°C° 0 mm 5 mps 747 mmHg 78%
    07:00 +4°C° 0 mm 6 mps 748 mmHg 71%
    08:00 +4°C° 0 mm 6 mps 748 mmHg 64%
    09:00 +5°C° 0 mm 6 mps 749 mmHg 57%
    10:00 +7°C° 0 mm 6 mps 749 mmHg 50%
    11:00 +7°C° 0 mm 6 mps 749 mmHg 42%
    12:00 +8°C° 0 mm 6 mps 749 mmHg 41%
    13:00 +8°C° 0 mm 6 mps 750 mmHg 39%
    14:00 +9°C° 0 mm 6 mps 750 mmHg 38%
    15:00 +9°C° 0 mm 6 mps 750 mmHg 39%
    16:00 +9°C° 0 mm 6 mps 750 mmHg 40%
    17:00 +9°C° 0 mm 5 mps 749 mmHg 40%
    18:00 +8°C° 0 mm 4 mps 750 mmHg 47%
    19:00 +6°C° 0 mm 4 mps 750 mmHg 53%
    20:00 +5°C° 0 mm 3 mps 750 mmHg 59%
    21:00 +5°C° 0 mm 2 mps 750 mmHg 62%
    22:00 +5°C° 0 mm 2 mps 750 mmHg 66%
    23:00 +4°C° 0 mm 2 mps 751 mmHg 70%

    11 Abril, Sábado

    Tiempo Temperatura Precipitaciones Viento Presión Humedad
    00:00 +4°C° 0 mm 2 mps 751 mmHg 69%
    01:00 +3°C° 0 mm 2 mps 751 mmHg 68%
    02:00 +3°C° 0 mm 2 mps 751 mmHg 67%
    03:00 +2°C° 0 mm 2 mps 751 mmHg 69%
    04:00 +2°C° 0 mm 2 mps 751 mmHg 71%
    05:00 +1°C° 0 mm 2 mps 752 mmHg 73%
    06:00 +2°C° 0 mm 2 mps 752 mmHg 70%
    07:00 +4°C° 0 mm 2 mps 752 mmHg 68%
    08:00 +4°C° 0 mm 3 mps 752 mmHg 65%
    09:00 +5°C° 0 mm 3 mps 753 mmHg 58%
    10:00 +7°C° 0 mm 3 mps 753 mmHg 51%
    11:00 +9°C° 0 mm 3 mps 753 mmHg 44%
    12:00 +9°C° 0 mm 3 mps 753 mmHg 41%
    13:00 +10°C° 0 mm 3 mps 753 mmHg 37%
    14:00 +10°C° 0 mm 4 mps 753 mmHg 34%
    15:00 +10°C° 0 mm 3 mps 753 mmHg 34%
    16:00 +9°C° 0 mm 3 mps 753 mmHg 34%
    17:00 +9°C° 0 mm 3 mps 753 mmHg 34%
    18:00 +8°C° 0 mm 3 mps 753 mmHg 38%
    19:00 +6°C° 0 mm 2 mps 753 mmHg 42%
    20:00 +5°C° 0 mm 2 mps 753 mmHg 46%
    21:00 +5°C° 0 mm 2 mps 753 mmHg 47%
    22:00 +4°C° 0 mm 2 mps 753 mmHg 48%
    23:00 +4°C° 0 mm 2 mps 753 mmHg 49%

    12 Abril, Domingo

    Tiempo Temperatura Precipitaciones Viento Presión Humedad
    00:00 +4°C° 0 mm 2 mps 753 mmHg 50%
    01:00 +3°C° 0 mm 2 mps 753 mmHg 52%
    02:00 +3°C° 0 mm 2 mps 753 mmHg 53%
    03:00 +2°C° 0 mm 2 mps 753 mmHg 55%
    04:00 +2°C° 0 mm 2 mps 752 mmHg 56%
    05:00 +1°C° 0 mm 2 mps 752 mmHg 57%
    06:00 +3°C° 0 mm 2 mps 752 mmHg 54%
    07:00 +3°C° 0 mm 3 mps 752 mmHg 50%
    08:00 +5°C° 0 mm 3 mps 752 mmHg 46%
    09:00 +7°C° 0 mm 3 mps 751 mmHg 43%
    10:00 +9°C° 0 mm 3 mps 751 mmHg 40%
    11:00 +11°C° 0 mm 3 mps 750 mmHg 37%
    12:00 +12°C° 0 mm 3 mps 750 mmHg 36%
    13:00 +13°C° 0 mm 3 mps 749 mmHg 35%
    14:00 +14°C° 0 mm 3 mps 749 mmHg 34%
    15:00 +14°C° 0 mm 3 mps 748 mmHg 36%
    16:00 +14°C° 0 mm 3 mps 748 mmHg 37%
    17:00 +14°C° 0 mm 3 mps 747 mmHg 38%
    18:00 +12°C° 0 mm 3 mps 747 mmHg 44%
    19:00 +12°C° 0 mm 2 mps 746 mmHg 49%
    20:00 +9°C° 0 mm 2 mps 746 mmHg 54%
    21:00 +8°C° 0 mm 2 mps 745 mmHg 56%
    22:00 +8°C° 0 mm 2 mps 745 mmHg 58%
    23:00 +7°C° 0 mm 3 mps 745 mmHg 60%

    13 Abril, Lunes

    Tiempo Temperatura Precipitaciones Viento Presión Humedad
    00:00 +7°C° 0 mm 3 mps 745 mmHg 61%
    01:00 +7°C° 0 mm 3 mps 744 mmHg 63%
    02:00 +7°C° 0 mm 3 mps 744 mmHg 65%
    03:00 +7°C° 0 mm 3 mps 743 mmHg 68%
    04:00 +5°C° 0 mm 3 mps 743 mmHg 72%
    05:00 +5°C° 0 mm 3 mps 743 mmHg 75%
    06:00 +7°C° 0 mm 4 mps 743 mmHg 72%
    07:00 +8°C° 0 mm 4 mps 742 mmHg 69%
    08:00 +9°C° 0 mm 5 mps 742 mmHg 66%
    09:00 +12°C° 0 mm 5 mps 742 mmHg 60%
    10:00 +14°C° 0 mm 6 mps 741 mmHg 54%
    11:00 +15°C° 0 mm 6 mps 741 mmHg 48%
    12:00 +16°C° 0 mm 6 mps 741 mmHg 46%
    13:00 +17°C° 0 mm 7 mps 740 mmHg 44%
    14:00 +17°C° 0 mm 7 mps 740 mmHg 42%
    15:00 +17°C° 0 mm 6 mps 739 mmHg 45%
    16:00 +17°C° 0 mm 6 mps 739 mmHg 48%
    17:00 +17°C° 0 mm 6 mps 738 mmHg 51%
    18:00 +16°C° 0 mm 5 mps 738 mmHg 54%
    19:00 +15°C° 0 mm 5 mps 737 mmHg 58%
    20:00 +14°C° 0 mm 5 mps 737 mmHg 62%
    21:00 +13°C° 0 mm 5 mps 736 mmHg 62%
    22:00 +13°C° 0 mm 5 mps 736 mmHg 62%
    23:00 +13°C° 0 mm 6 mps 736 mmHg 62%
    Mostrar más